| time (UTC) | temp F | wind direction | speed knots | gust knots | rain 1hr in | rain 24hr in | rain mn in | humidity % | barometer mb |
| 20260505083535 | 69 | 250 | 6.1 | 10.4 | 0.00 | 0.00 | 0.00 | 44 | 1011.2 |
| 20260505083055 | 69 | 254 | 6.1 | 9.6 | 0.00 | 0.00 | 0.00 | 45 | 1011.3 |
| 20260505082536 | 69 | 252 | 6.1 | 10.4 | 0.00 | 0.00 | 0.00 | 45 | 1011.4 |
| 20260505082035 | 69 | 277 | 6.1 | 13.0 | 0.00 | 0.00 | 0.00 | 45 | 1011.5 |
| 20260505081555 | 69 | 275 | 7.8 | 13.0 | 0.00 | 0.00 | 0.00 | 44 | 1011.7 |
| 20260505081037 | 69 | 281 | 8.7 | 13.0 | 0.00 | 0.00 | 0.00 | 44 | 1011.6 |
| 20260505080535 | 69 | 273 | 8.7 | 12.2 | 0.00 | 0.00 | 0.00 | 44 | 1011.7 |
| 20260505080048 | 69 | 265 | 7.0 | 12.2 | 0.00 | 0.00 | 0.00 | 43 | 1011.6 |
| 20260505075535 | 69 | 259 | 7.8 | 12.2 | 0.00 | 0.00 | 0.00 | 43 | 1011.5 |
| 20260505075035 | 69 | 287 | 7.0 | 12.2 | 0.00 | 0.00 | 0.00 | 42 | 1011.4 |
| 20260505074549 | 69 | 273 | 7.8 | 12.2 | 0.00 | 0.00 | 0.00 | 41 | 1011.5 |
| 20260505074038 | 69 | 279 | 7.0 | 12.2 | 0.00 | 0.00 | 0.00 | 39 | 1011.5 |
| 20260505073535 | 70 | 275 | 5.2 | 9.6 | 0.00 | 0.00 | 0.00 | 39 | 1011.5 |
| 20260505073046 | 70 | 289 | 6.1 | 9.6 | 0.00 | 0.00 | 0.00 | 39 | 1011.4 |
| 20260505072538 | 70 | 288 | 5.2 | 9.6 | 0.00 | 0.00 | 0.00 | 38 | 1011.3 |
| 20260505072034 | 70 | 272 | 5.2 | 8.7 | 0.00 | 0.00 | 0.00 | 38 | 1011.4 |
| 20260505071549 | 70 | 257 | 5.2 | 12.2 | 0.00 | 0.00 | 0.00 | 38 | 1011.3 |
| 20260505071035 | 71 | 282 | 7.0 | 13.0 | 0.00 | 0.00 | 0.00 | 38 | 1011.2 |
| 20260505070536 | 71 | 291 | 8.7 | 13.0 | 0.00 | 0.00 | 0.00 | 38 | 1011.3 |
| 20260505070045 | 71 | 275 | 7.8 | 13.0 | 0.00 | 0.00 | 0.00 | 38 | 1011.2 |
| 20260505065536 | 71 | 268 | 8.7 | 13.9 | 0.00 | 0.00 | 0.00 | 38 | 1011.4 |
| 20260505065035 | 71 | 277 | 8.7 | 13.9 | 0.00 | 0.00 | 0.00 | 38 | 1011.3 |
| 20260505064546 | 71 | 281 | 9.6 | 12.2 | 0.00 | 0.00 | 0.00 | 38 | 1011.4 |
| 20260505064035 | 71 | 275 | 7.8 | 12.2 | 0.00 | 0.00 | 0.00 | 39 | 1011.3 |
| 20260505063535 | 71 | 279 | 7.0 | 12.2 | 0.00 | 0.00 | 0.00 | 39 | 1011.3 |
| 20260505063042 | 71 | 269 | 6.1 | 10.4 | 0.00 | 0.00 | 0.00 | 39 | 1011.4 |
| 20260505062538 | 72 | 273 | 5.2 | 7.8 | 0.00 | 0.00 | 0.00 | 38 | 1011.4 |
| 20260505062038 | 72 | 286 | 3.5 | 7.0 | 0.00 | 0.00 | 0.00 | 38 | 1011.4 |
| 20260505061550 | 72 | 265 | 2.6 | 7.8 | 0.00 | 0.00 | 0.00 | 38 | 1011.3 |
| 20260505061035 | 72 | 257 | 4.3 | 7.8 | 0.00 | 0.00 | 0.00 | 38 | 1011.2 |
| 20260505060536 | 72 | 257 | 4.3 | 9.6 | 0.00 | 0.00 | 0.00 | 38 | 1011.1 |
| 20260505060052 | 72 | 254 | 5.2 | 9.6 | 0.00 | 0.00 | 0.00 | 38 | 1011.0 |
| 20260505055536 | 72 | 261 | 2.6 | 6.1 | 0.00 | 0.00 | 0.00 | 39 | 1011.0 |
| 20260505055036 | 72 | 259 | 2.6 | 6.1 | 0.00 | 0.00 | 0.00 | 39 | 1011.0 |
| 20260505054556 | 72 | 286 | 2.6 | 8.7 | 0.00 | 0.00 | 0.00 | 40 | 1011.0 |
| 20260505054036 | 72 | 269 | 4.3 | 8.7 | 0.00 | 0.00 | 0.00 | 40 | 1011.0 |
| 20260505053537 | 72 | 275 | 3.5 | 7.8 | 0.00 | 0.00 | 0.00 | 40 | 1011.1 |
| 20260505053044 | 72 | 231 | 3.5 | 7.8 | 0.00 | 0.00 | 0.00 | 40 | 1011.1 |
| 20260505052536 | 72 | 250 | 4.3 | 8.7 | 0.00 | 0.00 | 0.00 | 41 | 1011.2 |
| 20260505052036 | 72 | 275 | 6.1 | 8.7 | 0.00 | 0.00 | 0.00 | 41 | 1011.1 |
| 20260505051544 | 72 | 273 | 3.5 | 8.7 | 0.00 | 0.00 | 0.00 | 41 | 1011.2 |
| 20260505051036 | 72 | 275 | 5.2 | 8.7 | 0.00 | 0.00 | 0.00 | 42 | 1011.2 |
| 20260505050536 | 72 | 286 | 6.1 | 8.7 | 0.00 | 0.00 | 0.00 | 41 | 1011.3 |
| 20260505041548 | 73 | 269 | 2.6 | 6.1 | 0.00 | 0.00 | 0.00 | 40 | 1011.4 |
| 20260505041037 | 73 | 246 | 2.6 | 6.1 | 0.00 | 0.00 | 0.00 | 40 | 1011.4 |
| 20260505040536 | 73 | 240 | 2.6 | 6.1 | 0.00 | 0.00 | 0.00 | 40 | 1011.3 |
| 20260505040044 | 73 | 244 | 2.6 | 7.0 | 0.00 | 0.00 | 0.00 | 40 | 1011.4 |
| 20260505035536 | 73 | 286 | 3.5 | 7.8 | 0.00 | 0.00 | 0.00 | 39 | 1011.4 |
| 20260505035036 | 73 | 286 | 4.3 | 7.8 | 0.00 | 0.00 | 0.00 | 39 | 1011.4 |
| 20260505034552 | 73 | 271 | 3.5 | 6.1 | 0.00 | 0.00 | 0.00 | 39 | 1011.4 |
| 20260505034035 | 73 | 280 | 3.5 | 6.1 | 0.00 | 0.00 | 0.00 | 38 | 1011.3 |
| 20260505033536 | 73 | 265 | 2.6 | 6.1 | 0.00 | 0.00 | 0.00 | 38 | 1011.2 |
| 20260505033046 | 74 | 284 | 3.5 | 6.1 | 0.00 | 0.00 | 0.00 | 37 | 1010.9 |
| 20260505032540 | 74 | 281 | 2.6 | 6.1 | 0.00 | 0.00 | 0.00 | 37 | 1010.8 |
| 20260505032035 | 74 | 261 | 2.6 | 8.7 | 0.00 | 0.00 | 0.00 | 37 | 1010.7 |
| 20260505031556 | 74 | 261 | 4.3 | 8.7 | 0.00 | 0.00 | 0.00 | 37 | 1010.8 |
| 20260505031036 | 74 | 279 | 4.3 | 7.0 | 0.00 | 0.00 | 0.00 | 37 | 1010.7 |
| 20260505030537 | 74 | 269 | 4.3 | 7.0 | 0.00 | 0.00 | 0.00 | 36 | 1010.6 |
| 20260505030100 | 74 | 269 | 3.5 | 7.8 | 0.00 | 0.00 | 0.00 | 36 | 1010.6 |
| 20260505025537 | 74 | 275 | 3.5 | 7.8 | 0.00 | 0.00 | 0.00 | 36 | 1010.6 |
| 20260505025036 | 74 | 275 | 5.2 | 7.8 | 0.00 | 0.00 | 0.00 | 35 | 1010.5 |
| 20260505024550 | 74 | 269 | 5.2 | 7.8 | 0.00 | 0.00 | 0.00 | 35 | 1010.4 |
| 20260505024035 | 74 | 269 | 6.1 | 7.8 | 0.00 | 0.00 | 0.00 | 35 | 1010.4 |
| 20260505023536 | 74 | 265 | 3.5 | 8.7 | 0.00 | 0.00 | 0.00 | 35 | 1010.4 |
| 20260505023047 | 74 | 292 | 4.3 | 8.7 | 0.00 | 0.00 | 0.00 | 35 | 1010.5 |
| 20260505022536 | 74 | 291 | 5.2 | 8.7 | 0.00 | 0.00 | 0.00 | 35 | 1010.6 |
| 20260505022035 | 74 | 275 | 6.1 | 8.7 | 0.00 | 0.00 | 0.00 | 35 | 1010.6 |
| 20260505021541 | 74 | 286 | 5.2 | 9.6 | 0.00 | 0.00 | 0.00 | 35 | 1010.6 |
| 20260505021035 | 74 | 275 | 6.1 | 10.4 | 0.00 | 0.00 | 0.00 | 35 | 1010.6 |
| 20260505020535 | 74 | 262 | 7.0 | 10.4 | 0.00 | 0.00 | 0.00 | 35 | 1010.4 |
| 20260505020050 | 75 | 281 | 7.0 | 9.6 | 0.00 | 0.00 | 0.00 | 36 | 1010.4 |
| 20260505015535 | 75 | 295 | 6.1 | 10.4 | 0.00 | 0.00 | 0.00 | 36 | 1010.4 |
| 20260505015035 | 75 | 277 | 7.8 | 10.4 | 0.00 | 0.00 | 0.00 | 36 | 1010.5 |
| 20260505014604 | 75 | 273 | 6.1 | 10.4 | 0.00 | 0.00 | 0.00 | 36 | 1010.4 |
| 20260505014037 | 75 | 273 | 7.8 | 10.4 | 0.00 | 0.00 | 0.00 | 35 | 1010.4 |
| 20260505013534 | 75 | 275 | 6.1 | 9.6 | 0.00 | 0.00 | 0.00 | 36 | 1010.4 |
| 20260505013051 | 75 | 265 | 6.1 | 10.4 | 0.00 | 0.00 | 0.00 | 35 | 1010.3 |
| 20260505012534 | 75 | 280 | 7.0 | 11.3 | 0.00 | 0.00 | 0.00 | 35 | 1010.3 |
| 20260505012036 | 75 | 261 | 7.0 | 11.3 | 0.00 | 0.00 | 0.00 | 35 | 1010.4 |
| 20260505011549 | 75 | 271 | 7.0 | 11.3 | 0.00 | 0.00 | 0.00 | 35 | 1010.5 |
| 20260505011035 | 75 | 275 | 6.1 | 12.2 | 0.00 | 0.00 | 0.00 | 37 | 1010.7 |
| 20260505010535 | 75 | 292 | 7.8 | 12.2 | 0.00 | 0.00 | 0.00 | 37 | 1010.4 |
| 20260505010041 | 75 | 263 | 7.8 | 12.2 | 0.00 | 0.00 | 0.00 | 37 | 1010.5 |
| 20260505005536 | 75 | 266 | 8.7 | 12.2 | 0.00 | 0.00 | 0.00 | 37 | 1010.4 |
| 20260505005035 | 75 | 262 | 7.8 | 11.3 | 0.00 | 0.00 | 0.00 | 38 | 1010.6 |
| 20260505004554 | 76 | 297 | 6.1 | 13.0 | 0.00 | 0.00 | 0.00 | 39 | 1010.6 |
| 20260505004034 | 76 | 298 | 7.0 | 13.0 | 0.00 | 0.00 | 0.00 | 38 | 1010.6 |
| 20260505003535 | 76 | 259 | 7.8 | 12.2 | 0.00 | 0.00 | 0.00 | 38 | 1010.5 |
| 20260505003044 | 76 | 286 | 7.8 | 12.2 | 0.00 | 0.00 | 0.00 | 38 | 1010.5 |
| 20260505002537 | 76 | 267 | 7.8 | 13.0 | 0.00 | 0.00 | 0.00 | 38 | 1010.6 |
| 20260505002035 | 76 | 268 | 10.4 | 13.9 | 0.00 | 0.00 | 0.00 | 38 | 1010.6 |
| 20260505001546 | 76 | 294 | 7.8 | 13.9 | 0.00 | 0.00 | 0.00 | 39 | 1010.7 |
| 20260505001035 | 76 | 269 | 7.8 | 12.2 | 0.00 | 0.00 | 0.00 | 39 | 1010.6 |
| 20260505000535 | 76 | 286 | 7.8 | 11.3 | 0.00 | 0.00 | 0.00 | 38 | 1010.9 |
| 20260505000057 | 76 | 247 | 6.1 | 11.3 | 0.00 | 0.00 | 0.00 | 38 | 1010.8 |
| 20260504235535 | 76 | 246 | 6.1 | 10.4 | 0.00 | 0.00 | 0.00 | 38 | 1010.9 |
| 20260504235035 | 76 | 265 | 5.2 | 10.4 | 0.00 | 0.00 | 0.00 | 38 | 1010.9 |
| 20260504234550 | 76 | 255 | 7.0 | 13.9 | 0.00 | 0.00 | 0.00 | 38 | 1010.9 |
| 20260504234036 | 76 | 241 | 7.8 | 13.9 | 0.00 | 0.00 | 0.00 | 38 | 1010.9 |
| 20260504233536 | 76 | 297 | 7.8 | 13.9 | 0.00 | 0.00 | 0.00 | 39 | 1010.9 |
| 20260504233046 | 76 | 291 | 5.2 | 13.9 | 0.00 | 0.00 | 0.00 | 38 | 1011.0 |
| 20260504232536 | 77 | 277 | 8.7 | 13.0 | 0.00 | 0.00 | 0.00 | 37 | 1011.0 |
| 20260504232035 | 77 | 267 | 8.7 | 13.0 | 0.00 | 0.00 | 0.00 | 37 | 1011.0 |
| 20260504231544 | 77 | 225 | 5.2 | 15.6 | 0.00 | 0.00 | 0.00 | 37 | 1011.0 |
| 20260504231035 | 76 | 280 | 7.8 | 15.6 | 0.00 | 0.00 | 0.00 | 37 | 1010.9 |
| 20260504230535 | 76 | 259 | 8.7 | 13.9 | 0.00 | 0.00 | 0.00 | 39 | 1011.1 |
| 20260504230049 | 76 | 321 | 7.0 | 14.8 | 0.00 | 0.00 | 0.00 | 38 | 1011.0 |
| 20260504225535 | 76 | 277 | 8.7 | 14.8 | 0.00 | 0.00 | 0.00 | 38 | 1011.0 |
| 20260504225039 | 76 | 273 | 10.4 | 14.8 | 0.00 | 0.00 | 0.00 | 37 | 1011.0 |
| 20260504224547 | 76 | 257 | 8.7 | 13.0 | 0.00 | 0.00 | 0.00 | 37 | 1011.0 |
| 20260504224036 | 76 | 250 | 7.8 | 13.0 | 0.00 | 0.00 | 0.00 | 37 | 1011.1 |
| 20260504223535 | 76 | 293 | 7.0 | 13.9 | 0.00 | 0.00 | 0.00 | 38 | 1011.1 |
| 20260504223047 | 76 | 293 | 7.8 | 13.9 | 0.00 | 0.00 | 0.00 | 38 | 1011.2 |
| 20260504222538 | 76 | 267 | 7.8 | 14.8 | 0.00 | 0.00 | 0.00 | 38 | 1011.3 |
| 20260504222117 | 76 | 270 | 10.4 | 14.8 | 0.00 | 0.00 | 0.00 | 38 | 1011.3 |
| 20260504222035 | 76 | 270 | 10.4 | 14.8 | 0.00 | 0.00 | 0.00 | 38 | 1011.3 |
| 20260504221546 | 76 | 271 | 8.7 | 13.9 | 0.00 | 0.00 | 0.00 | 38 | 1011.3 |
| 20260504221036 | 76 | 267 | 6.1 | 13.9 | 0.00 | 0.00 | 0.00 | 37 | 1011.3 |
| 20260504220536 | 76 | 288 | 8.7 | 13.9 | 0.00 | 0.00 | 0.00 | 39 | 1011.4 |
| 20260504220045 | 76 | 272 | 10.4 | 15.6 | 0.00 | 0.00 | 0.00 | 38 | 1011.4 |
| 20260504215535 | 76 | 293 | 8.7 | 17.4 | 0.00 | 0.00 | 0.00 | 40 | 1011.5 |
| 20260504215035 | 76 | 288 | 8.7 | 17.4 | 0.00 | 0.00 | 0.00 | 39 | 1011.7 |
| 20260504214552 | 76 | 284 | 7.8 | 12.2 | 0.00 | 0.00 | 0.00 | 40 | 1011.7 |
| 20260504214038 | 76 | 268 | 7.8 | 16.5 | 0.00 | 0.00 | 0.00 | 39 | 1011.8 |
| 20260504213535 | 75 | 279 | 10.4 | 16.5 | 0.00 | 0.00 | 0.00 | 40 | 1011.9 |
| 20260504213039 | 75 | 259 | 5.2 | 16.5 | 0.00 | 0.00 | 0.00 | 40 | 1011.8 |
| 20260504212536 | 75 | 279 | 8.7 | 16.5 | 0.00 | 0.00 | 0.00 | 40 | 1012.1 |
| 20260504212037 | 75 | 242 | 8.7 | 13.9 | 0.00 | 0.00 | 0.00 | 41 | 1012.1 |
| 20260504211547 | 75 | 291 | 9.6 | 16.5 | 0.00 | 0.00 | 0.00 | 40 | 1012.2 |
| 20260504211035 | 75 | 267 | 9.6 | 16.5 | 0.00 | 0.00 | 0.00 | 40 | 1012.3 |
| 20260504210538 | 75 | 236 | 7.8 | 15.6 | 0.00 | 0.00 | 0.00 | 40 | 1012.2 |
| 20260504210057 | 74 | 271 | 9.6 | 15.6 | 0.00 | 0.00 | 0.00 | 40 | 1012.3 |
| 20260504205536 | 74 | 273 | 10.4 | 15.6 | 0.00 | 0.00 | 0.00 | 40 | 1012.2 |
| 20260504205035 | 74 | 231 | 7.0 | 17.4 | 0.00 | 0.00 | 0.00 | 41 | 1012.3 |
| 20260504204558 | 74 | 266 | 9.6 | 17.4 | 0.00 | 0.00 | 0.00 | 41 | 1012.4 |
| 20260504204035 | 74 | 262 | 9.6 | 15.6 | 0.00 | 0.00 | 0.00 | 42 | 1012.5 |
| 20260504203535 | 74 | 275 | 7.8 | 15.6 | 0.00 | 0.00 | 0.00 | 42 | 1012.6 |
| 20260504203049 | 75 | 275 | 8.7 | 13.9 | 0.00 | 0.00 | 0.00 | 42 | 1012.7 |
| 20260504202535 | 75 | 287 | 9.6 | 13.9 | 0.00 | 0.00 | 0.00 | 41 | 1012.8 |
| 20260504202036 | 75 | 254 | 7.8 | 15.6 | 0.00 | 0.00 | 0.00 | 41 | 1012.7 |
| 20260504201547 | 74 | 273 | 7.8 | 15.6 | 0.00 | 0.00 | 0.00 | 42 | 1012.7 |
| 20260504201036 | 73 | 275 | 10.4 | 14.8 | 0.00 | 0.00 | 0.00 | 42 | 1013.0 |
| 20260504200536 | 73 | 298 | 7.8 | 13.0 | 0.00 | 0.00 | 0.00 | 41 | 1012.9 |
| 20260504200047 | 73 | 296 | 6.1 | 13.0 | 0.00 | 0.00 | 0.00 | 42 | 1012.8 |
| 20260504195535 | 73 | 261 | 7.0 | 13.9 | 0.00 | 0.00 | 0.00 | 42 | 1013.1 |
| 20260504195035 | 72 | 295 | 9.6 | 14.8 | 0.00 | 0.00 | 0.00 | 40 | 1012.9 |
| 20260504194545 | 72 | 265 | 9.6 | 14.8 | 0.00 | 0.00 | 0.00 | 41 | 1013.1 |
| 20260504194036 | 72 | 270 | 7.0 | 13.0 | 0.00 | 0.00 | 0.00 | 40 | 1012.7 |
| 20260504193538 | 72 | 286 | 8.7 | 14.8 | 0.00 | 0.00 | 0.00 | 40 | 1012.7 |
| 20260504193044 | 72 | 280 | 10.4 | 14.8 | 0.00 | 0.00 | 0.00 | 39 | 1013.0 |
| 20260504192536 | 72 | 257 | 7.8 | 13.9 | 0.00 | 0.00 | 0.00 | 40 | 1012.7 |
| 20260504192036 | 72 | 271 | 8.7 | 13.9 | 0.00 | 0.00 | 0.00 | 41 | 1012.4 |
| 20260504191542 | 72 | 267 | 7.8 | 11.3 | 0.00 | 0.00 | 0.00 | 41 | 1012.7 |
| 20260504191036 | 72 | 277 | 7.8 | 12.2 | 0.00 | 0.00 | 0.00 | 41 | 1012.5 |
| 20260504190535 | 72 | 250 | 7.0 | 13.9 | 0.00 | 0.00 | 0.00 | 41 | 1012.4 |
| 20260504190052 | 72 | 262 | 8.7 | 13.9 | 0.00 | 0.00 | 0.00 | 41 | 1012.3 |
| 20260504185534 | 71 | 288 | 9.6 | 13.9 | 0.00 | 0.00 | 0.00 | 42 | 1012.6 |
| 20260504185040 | 72 | 307 | 9.6 | 15.6 | 0.00 | 0.00 | 0.00 | 42 | 1012.7 |
| 20260504184546 | 71 | 284 | 10.4 | 16.5 | 0.00 | 0.00 | 0.00 | 43 | 1012.9 |
| 20260504184036 | 71 | 291 | 12.2 | 16.5 | 0.00 | 0.00 | 0.00 | 43 | 1012.7 |
| 20260504183536 | 72 | 295 | 12.2 | 17.4 | 0.00 | 0.00 | 0.00 | 42 | 1012.7 |
| 20260504183045 | 72 | 292 | 10.4 | 17.4 | 0.00 | 0.00 | 0.00 | 44 | 1012.7 |
| 20260504182535 | 72 | 275 | 7.8 | 12.2 | 0.00 | 0.00 | 0.00 | 45 | 1012.7 |
| 20260504182037 | 72 | 262 | 7.8 | 13.9 | 0.00 | 0.00 | 0.00 | 45 | 1012.7 |
| 20260504181543 | 72 | 268 | 10.4 | 13.9 | 0.00 | 0.00 | 0.00 | 46 | 1013.0 |
| 20260504181035 | 72 | 271 | 7.8 | 12.2 | 0.00 | 0.00 | 0.00 | 46 | 1013.0 |
| 20260504180536 | 71 | 261 | 7.8 | 14.8 | 0.00 | 0.00 | 0.00 | 46 | 1013.0 |
| 20260504180106 | 71 | 280 | 7.8 | 14.8 | 0.00 | 0.00 | 0.00 | 46 | 1013.1 |
| 20260504175536 | 71 | 277 | 9.6 | 15.6 | 0.00 | 0.00 | 0.00 | 47 | 1013.2 |
| 20260504175035 | 71 | 291 | 12.2 | 15.6 | 0.00 | 0.00 | 0.00 | 47 | 1013.1 |
| 20260504174547 | 71 | 302 | 12.2 | 19.1 | 0.00 | 0.00 | 0.00 | 48 | 1013.1 |
| 20260504174035 | 71 | 267 | 14.8 | 19.1 | 0.00 | 0.00 | 0.00 | 48 | 1013.0 |
| 20260504173535 | 70 | 297 | 11.3 | 17.4 | 0.00 | 0.00 | 0.00 | 47 | 1013.0 |
| 20260504173058 | 70 | 275 | 12.2 | 17.4 | 0.00 | 0.00 | 0.00 | 47 | 1012.9 |
| 20260504172534 | 70 | 275 | 12.2 | 17.4 | 0.00 | 0.00 | 0.00 | 47 | 1012.9 |
| 20260504172034 | 70 | 292 | 10.4 | 14.8 | 0.00 | 0.00 | 0.00 | 49 | 1012.5 |
| 20260504171546 | 70 | 300 | 8.7 | 14.8 | 0.00 | 0.00 | 0.00 | 49 | 1012.2 |
| 20260504171036 | 71 | 275 | 8.7 | 14.8 | 0.00 | 0.00 | 0.00 | 49 | 1012.0 |
| 20260504170536 | 70 | 254 | 7.8 | 14.8 | 0.00 | 0.00 | 0.00 | 50 | 1012.0 |
| 20260504151035 | 69 | 272 | 10.4 | 15.6 | 0.00 | 0.00 | 0.00 | 54 | 1012.0 |
| 20260504150537 | 69 | 279 | 10.4 | 14.8 | 0.00 | 0.00 | 0.00 | 53 | 1012.0 |
| 20260504141035 | 70 | 291 | 8.7 | 11.3 | 0.00 | 0.00 | 0.00 | 48 | 1011.2 |
| 20260504140535 | 70 | 286 | 8.7 | 11.3 | 0.00 | 0.00 | 0.00 | 48 | 1011.2 |
| 20260504130536 | 71 | 259 | 6.1 | 7.8 | 0.00 | 0.00 | 0.00 | 44 | 1011.1 |
| 20260504110535 | 74 | 265 | 5.2 | 8.7 | 0.00 | 0.00 | 0.00 | 37 | 1010.2 |
| 20260504100536 | 74 | 289 | 4.3 | 7.8 | 0.00 | 0.00 | 0.00 | 35 | 1010.4 |